Volver al catálogo

STARLINK-38289

ActivoComunicacionesSSO
NORAD 100313·PAYLOAD·🇺🇸 United States

Lanzado Aug 12, 2026 desde Vandenberg Space Force Base

Loading…

Próximos Pases (próximas 24 horas)

TLE

ActualizadoSource: Space-Track

Época: Sep 14, 2026, 18:54 UTC

1 A0313U 26184N   26257.78772235  .00011937  00000-0  33204-3 0  9997
2 A0313  97.2836 122.9664 0001816  98.8850 261.2600 15.36983501  6484

Sigue STARLINK-38289 en tiempo real con AllMySat

Download on the App Store